Weather in zheleznodorozhnaya stantsiya Taltsy

Russia / Novgorod Oblast     59°11′42″N   32°53′15″E
В апреле 2022 года жителям России запретили посещать сайт meteo.paraplan.net по решению Генеральной прокуратуры. Аудитория сайта уменьшилась в 10 раз. Владельцы сайта не видят смысла в поддержке погодного сервера в таких условиях. Сайт будет закрыт в октябре.
temp.,
°C
wind,
m/s
gust,
m/s
humid.,
%
clouds,
%
prec.,
mm/h
press.,
hPa
HPBL,
m
29 september, thu
thu2900:00+5e3597100 0.6 1005786
03:00+5e3697100 1.5 1005585
06:00+4e3797100 0.5 1005418
09:00+5e2697100 0.7 1005330
12:00+5ese249697 0.4 1006295
15:00+9sse2379100 0.5 1007818
18:00+7e2592100 0.0 1007130
21:00+7sse2793100 0.1 1008249
30 september, fri
fri3000:00+7sse2896100 0.0 1008299
03:00+7sse289792 0.0 1008254
06:00+8s3793100 0.0 1008473
09:00+9s3793100 0.1 1009601
12:00+9s379177 0.1 1010549
15:00+11sw4674100 0.1 1011973
18:00+9sw378624 0.3 1012287
21:00+6ssw299718 0.6 1013213
1 october, sat
sat100:00+6ssw39955 0.0 1014226
03:00+5ssw28975 0.0 1015201
06:00+4sw259821 0.0 1016116
09:00+6sw24915 0.0 1016180
12:00+11sw23725 0.0 1016720
15:00+12wsw236099 0.0 10151284
18:00+10wnw116297 0.0 101510
21:00+8nne006837 0.0 101410
2 october, sun
sun200:00+7n117137 0.0 101411
03:00+5nnw22815 0.0 101417
06:00+4ne229442 0.0 101418
09:00+7nne12835 0.0 1015144
12:00+11nne22630 0.0 1015732
15:00+12ne23565 0.0 10141110
18:00+8ene227665 0.0 101415
21:00+6ese238781 0.0 101551
3 october, mon
mon300:00+5ese258893 0.0 101597
03:00+5ese2789100 0.0 1014178
06:00+3ene2987100 0.0 1014222
09:00+5ene3117799 0.0 1013418
12:00+8ene4969100 0.0 1013743
15:00+8ne51168100 0.0 1012878
18:00+5ne61390100 2.4 1011832
21:00+5ne71692100 6.8 1009864